Location: Madrid
(40.4000°N, 3.6830°W)
Time: 02:01:42
(UTC+02:00)

ISS - Pass Details

Date: 19 July 2019
Orbit: 409 x 418 km, 51.6° (Epoch: 23 July)

Event Time Altitude Azimuth Distance (km) Brightness Sun altitude
Rises 00:36:03 0° 278° (W) 2,349 0.5 -24.0°
Reaches altitude 10° 00:38:40 10° 299° (WNW) 1,486 -0.3 -24.2°
Maximum altitude 00:40:58 17° 343° (NNW) 1,129 -0.7 -24.4°
Drops below altitude 10° 00:43:15 10° 26° (NNE) 1,485 -0.5 -24.6°
Sets 00:45:52 0° 48° (NE) 2,347 0.3 -24.8°
